Year,Month,Day,Hour,Minute,Value (Times are PST for insolation in W/m^2)
2022,10,21,00,00,49.50
2022,10,21,00,01,47.40
2022,10,21,00,02,49.00
2022,10,21,00,03,47.60
2022,10,21,00,04,48.60
2022,10,21,00,05,48.80
2022,10,21,00,06,46.00
2022,10,21,00,07,45.40
2022,10,21,00,08,45.30
2022,10,21,00,09,49.20
2022,10,21,00,10,47.60
2022,10,21,00,11,46.80
2022,10,21,00,12,50.40
2022,10,21,00,13,47.40
2022,10,21,00,14,50.30
2022,10,21,00,15,51.30
2022,10,21,00,16,49.00
2022,10,21,00,17,51.80
2022,10,21,00,18,53.80
2022,10,21,00,19,47.40
2022,10,21,00,20,48.60
2022,10,21,00,21,46.70
2022,10,21,00,22,46.00
2022,10,21,00,23,46.60
2022,10,21,00,24,49.70
2022,10,21,00,25,49.40
2022,10,21,00,26,50.90
2022,10,21,00,27,50.60
2022,10,21,00,28,49.70
2022,10,21,00,29,51.00
2022,10,21,00,30,49.80
2022,10,21,00,31,49.00
2022,10,21,00,32,49.00
2022,10,21,00,33,49.00
2022,10,21,00,34,48.60
2022,10,21,00,35,47.00
2022,10,21,00,36,47.90
2022,10,21,00,37,49.00
2022,10,21,00,38,51.80
2022,10,21,00,39,48.10
2022,10,21,00,40,47.20
2022,10,21,00,41,48.60
2022,10,21,00,42,47.70
2022,10,21,00,43,48.10
2022,10,21,00,44,48.10
2022,10,21,00,45,47.60
2022,10,21,00,46,48.60
2022,10,21,00,47,49.10
2022,10,21,00,48,51.00
2022,10,21,00,49,49.70
2022,10,21,00,50,47.90
2022,10,21,00,51,49.00
2022,10,21,00,52,49.00
2022,10,21,00,53,49.00
2022,10,21,00,54,47.40
2022,10,21,00,55,50.60
2022,10,21,00,56,49.60
2022,10,21,00,57,50.10
2022,10,21,00,58,47.90
2022,10,21,00,59,48.40
2022,10,21,01,00,47.40
2022,10,21,01,01,48.90
2022,10,21,01,02,49.00
2022,10,21,01,03,49.00
2022,10,21,01,04,49.00
2022,10,21,01,05,49.00
2022,10,21,01,06,51.80
2022,10,21,01,07,53.00
2022,10,21,01,08,51.30
2022,10,21,01,09,52.60
2022,10,21,01,10,51.00
2022,10,21,01,11,51.00
2022,10,21,01,12,51.00
2022,10,21,01,13,51.00
2022,10,21,01,14,51.00
2022,10,21,01,15,51.00
2022,10,21,01,16,50.60
2022,10,21,01,17,50.30
2022,10,21,01,18,52.10
2022,10,21,01,19,51.00
2022,10,21,01,20,49.60
2022,10,21,01,21,50.60
2022,10,21,01,22,53.80
2022,10,21,01,23,62.00
2022,10,21,01,24,50.30
2022,10,21,01,25,53.00
2022,10,21,01,26,53.60
2022,10,21,01,27,56.70
2022,10,21,01,28,50.70
2022,10,21,01,29,54.60
2022,10,21,01,30,45.70
2022,10,21,01,31,56.20
2022,10,21,01,32,54.60
2022,10,21,01,33,47.90
2022,10,21,01,34,51.00
2022,10,21,01,35,51.00
2022,10,21,01,36,51.00
2022,10,21,01,37,51.00
2022,10,21,01,38,51.00
2022,10,21,01,39,51.90
2022,10,21,01,40,51.90
2022,10,21,01,41,49.60
2022,10,21,01,42,49.00
2022,10,21,01,43,49.00
2022,10,21,01,44,48.60
2022,10,21,01,45,47.00
2022,10,21,01,46,46.60
2022,10,21,01,47,48.90
2022,10,21,01,48,51.00
2022,10,21,01,49,47.70
2022,10,21,01,50,48.90
2022,10,21,01,51,48.60
2022,10,21,01,52,46.70
2022,10,21,01,53,46.00
2022,10,21,01,54,50.00
2022,10,21,01,55,62.90
2022,10,21,01,56,42.60
2022,10,21,01,57,45.40
2022,10,21,01,58,46.20
2022,10,21,01,59,49.30
2022,10,21,02,00,52.60
2022,10,21,02,01,52.80
2022,10,21,02,02,56.80
2022,10,21,02,03,42.40
2022,10,21,02,04,46.70
2022,10,21,02,05,48.30
2022,10,21,02,06,51.00
2022,10,21,02,07,47.90
2022,10,21,02,08,51.40
2022,10,21,02,09,55.10
2022,10,21,02,10,44.50
2022,10,21,02,11,53.60
2022,10,21,02,12,54.00
2022,10,21,02,13,53.00
2022,10,21,02,14,56.30
2022,10,21,02,15,60.10
2022,10,21,02,16,48.10
2022,10,21,02,17,48.10
2022,10,21,02,18,44.50
2022,10,21,02,19,45.60
2022,10,21,02,20,44.00
2022,10,21,02,21,44.90
2022,10,21,02,22,46.00
2022,10,21,02,23,43.30
2022,10,21,02,24,43.60
2022,10,21,02,25,42.20
2022,10,21,02,26,44.00
2022,10,21,02,27,44.00
2022,10,21,02,28,44.90
2022,10,21,02,29,46.00
2022,10,21,02,30,46.00
2022,10,21,02,31,44.40
2022,10,21,02,32,45.80
2022,10,21,02,33,44.40
2022,10,21,02,34,46.00
2022,10,21,02,35,46.00
2022,10,21,02,36,46.00
2022,10,21,02,37,46.00
2022,10,21,02,38,46.00
2022,10,21,02,39,44.10
2022,10,21,02,40,44.40
2022,10,21,02,41,45.30
2022,10,21,02,42,44.00
2022,10,21,02,43,44.00
2022,10,21,02,44,44.00
2022,10,21,02,45,45.60
2022,10,21,02,46,44.10
2022,10,21,02,47,44.00
2022,10,21,02,48,44.00
2022,10,21,02,49,44.00
2022,10,21,02,50,45.10
2022,10,21,02,51,46.00
2022,10,21,02,52,44.40
2022,10,21,02,53,44.00
2022,10,21,02,54,43.60
2022,10,21,02,55,42.00
2022,10,21,02,56,42.00
2022,10,21,02,57,43.10
2022,10,21,02,58,44.00
2022,10,21,02,59,42.40
2022,10,21,03,00,43.90
2022,10,21,03,01,44.00
2022,10,21,03,02,44.60
2022,10,21,03,03,45.10
2022,10,21,03,04,42.90
2022,10,21,03,05,42.00
2022,10,21,03,06,42.00
2022,10,21,03,07,40.10
2022,10,21,03,08,40.00
2022,10,21,03,09,40.00
2022,10,21,03,10,40.00
2022,10,21,03,11,43.30
2022,10,21,03,12,46.00
2022,10,21,03,13,42.60
2022,10,21,03,14,42.10
2022,10,21,03,15,44.00
2022,10,21,03,16,44.00
2022,10,21,03,17,44.00
2022,10,21,03,18,44.00
2022,10,21,03,19,44.00
2022,10,21,03,20,44.00
2022,10,21,03,21,44.00
2022,10,21,03,22,43.60
2022,10,21,03,23,42.70
2022,10,21,03,24,44.00
2022,10,21,03,25,45.10
2022,10,21,03,26,46.00
2022,10,21,03,27,46.00
2022,10,21,03,28,46.00
2022,10,21,03,29,46.20
2022,10,21,03,30,46.70
2022,10,21,03,31,46.40
2022,10,21,03,32,47.00
2022,10,21,03,33,47.00
2022,10,21,03,34,47.00
2022,10,21,03,35,47.10
2022,10,21,03,36,48.60
2022,10,21,03,37,47.00
2022,10,21,03,38,47.90
2022,10,21,03,39,47.90
2022,10,21,03,40,48.40
2022,10,21,03,41,47.40
2022,10,21,03,42,47.00
2022,10,21,03,43,47.40
2022,10,21,03,44,48.00
2022,10,21,03,45,46.00
2022,10,21,03,46,47.70
2022,10,21,03,47,47.60
2022,10,21,03,48,47.00
2022,10,21,03,49,47.00
2022,10,21,03,50,46.80
2022,10,21,03,51,46.30
2022,10,21,03,52,47.00
2022,10,21,03,53,47.00
2022,10,21,03,54,47.00
2022,10,21,03,55,48.60
2022,10,21,03,56,47.10
2022,10,21,03,57,47.00
2022,10,21,03,58,46.00
2022,10,21,03,59,45.30
2022,10,21,04,00,46.40
2022,10,21,04,01,49.50
2022,10,21,04,02,49.40
2022,10,21,04,03,47.40
2022,10,21,04,04,50.30
2022,10,21,04,05,47.60
2022,10,21,04,06,48.10
2022,10,21,04,07,48.10
2022,10,21,04,08,49.00
2022,10,21,04,09,47.40
2022,10,21,04,10,49.00
2022,10,21,04,11,49.70
2022,10,21,04,12,42.30
2022,10,21,04,13,42.20
2022,10,21,04,14,43.60
2022,10,21,04,15,43.40
2022,10,21,04,16,44.00
2022,10,21,04,17,51.90
2022,10,21,04,18,43.30
2022,10,21,04,19,48.10
2022,10,21,04,20,46.00
2022,10,21,04,21,51.60
2022,10,21,04,22,46.50
2022,10,21,04,23,47.70
2022,10,21,04,24,51.20
2022,10,21,04,25,53.80
2022,10,21,04,26,47.70
2022,10,21,04,27,52.30
2022,10,21,04,28,54.00
2022,10,21,04,29,53.30
2022,10,21,04,30,53.00
2022,10,21,04,31,54.60
2022,10,21,04,32,41.60
2022,10,21,04,33,51.00
2022,10,21,04,34,53.20
2022,10,21,04,35,46.60
2022,10,21,04,36,51.00
2022,10,21,04,37,42.00
2022,10,21,04,38,44.00
2022,10,21,04,39,48.30
2022,10,21,04,40,54.00
2022,10,21,04,41,50.70
2022,10,21,04,42,48.00
2022,10,21,04,43,52.40
2022,10,21,04,44,44.00
2022,10,21,04,45,54.40
2022,10,21,04,46,43.70
2022,10,21,04,47,50.40
2022,10,21,04,48,53.70
2022,10,21,04,49,60.00
2022,10,21,04,50,50.50
2022,10,21,04,51,48.40
2022,10,21,04,52,53.60
2022,10,21,04,53,51.40
2022,10,21,04,54,47.30
2022,10,21,04,55,50.00
2022,10,21,04,56,47.20
2022,10,21,04,57,56.40
2022,10,21,04,58,45.00
2022,10,21,04,59,52.10
2022,10,21,05,00,52.60
2022,10,21,05,01,53.30
2022,10,21,05,02,48.40
2022,10,21,05,03,56.20
2022,10,21,05,04,45.80
2022,10,21,05,05,45.70
2022,10,21,05,06,56.40
2022,10,21,05,07,48.10
2022,10,21,05,08,53.90
2022,10,21,05,09,47.20
2022,10,21,05,10,46.50
2022,10,21,05,11,48.10
2022,10,21,05,12,54.20
2022,10,21,05,13,45.10
2022,10,21,05,14,53.00
2022,10,21,05,15,54.70
2022,10,21,05,16,48.70
2022,10,21,05,17,45.00
2022,10,21,05,18,52.40
2022,10,21,05,19,55.40
2022,10,21,05,20,46.80
2022,10,21,05,21,48.10
2022,10,21,05,22,53.30
2022,10,21,05,23,57.40
2022,10,21,05,24,49.80
2022,10,21,05,25,51.30
2022,10,21,05,26,43.00
2022,10,21,05,27,50.40
2022,10,21,05,28,53.60
2022,10,21,05,29,51.30
2022,10,21,05,30,47.70
2022,10,21,05,31,49.10
2022,10,21,05,32,50.10
2022,10,21,05,33,59.10
2022,10,21,05,34,43.00
2022,10,21,05,35,49.80
2022,10,21,05,36,56.10
2022,10,21,05,37,48.90
2022,10,21,05,38,52.80
2022,10,21,05,39,53.30
2022,10,21,05,40,48.10
2022,10,21,05,41,54.80
2022,10,21,05,42,45.10
2022,10,21,05,43,51.30
2022,10,21,05,44,50.40
2022,10,21,05,45,47.00
2022,10,21,05,46,49.00
2022,10,21,05,47,49.00
2022,10,21,05,48,49.10
2022,10,21,05,49,50.60
2022,10,21,05,50,48.30
2022,10,21,05,51,47.90
2022,10,21,05,52,50.20
2022,10,21,05,53,52.40
2022,10,21,05,54,47.00
2022,10,21,05,55,47.00
2022,10,21,05,56,47.40
2022,10,21,05,57,49.70
2022,10,21,05,58,49.10
2022,10,21,05,59,47.00
2022,10,21,06,00,46.30
2022,10,21,06,01,48.40
2022,10,21,06,02,48.90
2022,10,21,06,03,46.80
2022,10,21,06,04,46.00
2022,10,21,06,05,48.10
2022,10,21,06,06,49.90
2022,10,21,06,07,45.60
2022,10,21,06,08,51.30
2022,10,21,06,09,51.10
2022,10,21,06,10,51.00
2022,10,21,06,11,49.40
2022,10,21,06,12,46.00
2022,10,21,06,13,46.00
2022,10,21,06,14,46.00
2022,10,21,06,15,46.80
2022,10,21,06,16,48.90
2022,10,21,06,17,48.60
2022,10,21,06,18,49.10
2022,10,21,06,19,51.00
2022,10,21,06,20,48.10
2022,10,21,06,21,47.00
2022,10,21,06,22,46.80
2022,10,21,06,23,52.80
2022,10,21,06,24,52.10
2022,10,21,06,25,49.00
2022,10,21,06,26,50.70
2022,10,21,06,27,51.80
2022,10,21,06,28,54.30
2022,10,21,06,29,47.80
2022,10,21,06,30,48.90
2022,10,21,06,31,48.60
2022,10,21,06,32,47.70
2022,10,21,06,33,48.10
2022,10,21,06,34,48.10
2022,10,21,06,35,47.60
2022,10,21,06,36,50.30
2022,10,21,06,37,49.10
2022,10,21,06,38,49.00
2022,10,21,06,39,49.00
2022,10,21,06,40,53.00
2022,10,21,06,41,48.90
2022,10,21,06,42,46.90
2022,10,21,06,43,52.30
2022,10,21,06,44,49.40
2022,10,21,06,45,51.00
2022,10,21,06,46,50.40
2022,10,21,06,47,49.90
2022,10,21,06,48,51.00
2022,10,21,06,49,48.10
2022,10,21,06,50,48.60
2022,10,21,06,51,54.30
2022,10,21,06,52,57.10
2022,10,21,06,53,45.00
2022,10,21,06,54,47.90
2022,10,21,06,55,50.20
2022,10,21,06,56,52.40
2022,10,21,06,57,53.00
2022,10,21,06,58,53.40
2022,10,21,06,59,55.40
2022,10,21,07,00,47.70
2022,10,21,07,01,52.30
2022,10,21,07,02,54.00
2022,10,21,07,03,55.40
2022,10,21,07,04,48.30
2022,10,21,07,05,49.50
2022,10,21,07,06,55.40
2022,10,21,07,07,51.40
2022,10,21,07,08,62.10
2022,10,21,07,09,50.90
2022,10,21,07,10,51.90
2022,10,21,07,11,60.60
2022,10,21,07,12,52.80
2022,10,21,07,13,64.90
2022,10,21,07,14,49.30
2022,10,21,07,15,51.60
2022,10,21,07,16,46.60
2022,10,21,07,17,51.20
2022,10,21,07,18,53.80
2022,10,21,07,19,53.30
2022,10,21,07,20,54.50
2022,10,21,07,21,50.70
2022,10,21,07,22,52.60
2022,10,21,07,23,55.00
2022,10,21,07,24,49.90
2022,10,21,07,25,50.10
2022,10,21,07,26,55.00
2022,10,21,07,27,50.30
2022,10,21,07,28,63.40
2022,10,21,07,29,57.30
2022,10,21,07,30,54.00
2022,10,21,07,31,55.40
2022,10,21,07,32,47.90
2022,10,21,07,33,56.40
2022,10,21,07,34,49.40
2022,10,21,07,35,55.30
2022,10,21,07,36,49.60
2022,10,21,07,37,52.30
2022,10,21,07,38,59.10
2022,10,21,07,39,55.70
2022,10,21,07,40,67.30
2022,10,21,07,41,56.40
2022,10,21,07,42,64.30
2022,10,21,07,43,59.00
2022,10,21,07,44,69.40
2022,10,21,07,45,74.70
2022,10,21,07,46,72.00
2022,10,21,07,47,65.50
2022,10,21,07,48,65.00
2022,10,21,07,49,64.40
2022,10,21,07,50,63.90
2022,10,21,07,51,63.90
2022,10,21,07,52,64.40
2022,10,21,07,53,65.00
2022,10,21,07,54,65.00
2022,10,21,07,55,65.00
2022,10,21,07,56,64.40
2022,10,21,07,57,64.80
2022,10,21,07,58,65.90
2022,10,21,07,59,61.50
2022,10,21,08,00,68.20
2022,10,21,08,01,68.40
2022,10,21,08,02,60.90
2022,10,21,08,03,64.00
2022,10,21,08,04,62.40
2022,10,21,08,05,64.10
2022,10,21,08,06,63.60
2022,10,21,08,07,73.60
2022,10,21,08,08,69.40
2022,10,21,08,09,67.60
2022,10,21,08,10,67.60
2022,10,21,08,11,63.30
2022,10,21,08,12,70.30
2022,10,21,08,13,70.50
2022,10,21,08,14,67.40
2022,10,21,08,15,68.40
2022,10,21,08,16,62.60
2022,10,21,08,17,68.30
2022,10,21,08,18,77.30
2022,10,21,08,19,77.90
2022,10,21,08,20,73.60
2022,10,21,08,21,75.30
2022,10,21,08,22,75.70
2022,10,21,08,23,72.40
2022,10,21,08,24,74.00
2022,10,21,08,25,74.00
2022,10,21,08,26,75.70
2022,10,21,08,27,76.30
2022,10,21,08,28,70.20
2022,10,21,08,29,75.80
2022,10,21,08,30,77.00
2022,10,21,08,31,76.00
2022,10,21,08,32,74.00
2022,10,21,08,33,70.00
2022,10,21,08,34,70.50
2022,10,21,08,35,70.40
2022,10,21,08,36,71.70
2022,10,21,08,37,70.90
2022,10,21,08,38,74.00
2022,10,21,08,39,74.00
2022,10,21,08,40,74.00
2022,10,21,08,41,76.10
2022,10,21,08,42,90.00
2022,10,21,08,43,91.40
2022,10,21,08,44,93.70
2022,10,21,08,45,88.60
2022,10,21,08,46,91.30
2022,10,21,08,47,94.10
2022,10,21,08,48,93.60
2022,10,21,08,49,88.90
2022,10,21,08,50,92.60
2022,10,21,08,51,93.40
2022,10,21,08,52,94.40
2022,10,21,08,53,93.90
2022,10,21,08,54,92.20
2022,10,21,08,55,87.30
2022,10,21,08,56,80.30
2022,10,21,08,57,89.80
2022,10,21,08,58,81.90
2022,10,21,08,59,81.10
2022,10,21,09,00,84.00
2022,10,21,09,01,76.60
2022,10,21,09,02,84.70
2022,10,21,09,03,101.90
2022,10,21,09,04,100.40
2022,10,21,09,05,100.00
2022,10,21,09,06,99.40
2022,10,21,09,07,101.90
2022,10,21,09,08,110.60
2022,10,21,09,09,110.20
2022,10,21,09,10,101.70
2022,10,21,09,11,99.90
2022,10,21,09,12,98.70
2022,10,21,09,13,101.40
2022,10,21,09,14,94.70
2022,10,21,09,15,88.00
2022,10,21,09,16,90.00
2022,10,21,09,17,84.50
2022,10,21,09,18,89.70
2022,10,21,09,19,93.40
2022,10,21,09,20,92.30
2022,10,21,09,21,88.20
2022,10,21,09,22,88.20
2022,10,21,09,23,89.40
2022,10,21,09,24,88.60
2022,10,21,09,25,83.70
2022,10,21,09,26,88.00
2022,10,21,09,27,86.50
2022,10,21,09,28,83.40
2022,10,21,09,29,90.10
2022,10,21,09,30,93.60
2022,10,21,09,31,104.40
2022,10,21,09,32,97.40
2022,10,21,09,33,98.40
2022,10,21,09,34,99.40
2022,10,21,09,35,98.90
2022,10,21,09,36,100.00
2022,10,21,09,37,103.40
2022,10,21,09,38,96.90
2022,10,21,09,39,96.90
2022,10,21,09,40,98.00
2022,10,21,09,41,98.60
2022,10,21,09,42,100.00
2022,10,21,09,43,98.90
2022,10,21,09,44,99.30
2022,10,21,09,45,98.40
2022,10,21,09,46,102.10
2022,10,21,09,47,105.00
2022,10,21,09,48,107.90
2022,10,21,09,49,113.60
2022,10,21,09,50,114.70
2022,10,21,09,51,116.00
2022,10,21,09,52,119.30
2022,10,21,09,53,121.10
2022,10,21,09,54,123.00
2022,10,21,09,55,122.40
2022,10,21,09,56,125.70
2022,10,21,09,57,132.00
2022,10,21,09,58,132.00
2022,10,21,09,59,136.10
2022,10,21,10,00,142.00
2022,10,21,10,01,151.90
2022,10,21,10,02,149.00
2022,10,21,10,03,153.20
2022,10,21,10,04,161.10
2022,10,21,10,05,166.40
2022,10,21,10,06,172.80
2022,10,21,10,07,169.20
2022,10,21,10,08,167.50
2022,10,21,10,09,161.40
2022,10,21,10,10,157.70
2022,10,21,10,11,150.90
2022,10,21,10,12,148.00
2022,10,21,10,13,137.30
2022,10,21,10,14,138.20
2022,10,21,10,15,129.40
2022,10,21,10,16,126.40
2022,10,21,10,17,121.90
2022,10,21,10,18,115.70
2022,10,21,10,19,109.10
2022,10,21,10,20,107.00
2022,10,21,10,21,102.10
2022,10,21,10,22,98.00
2022,10,21,10,23,97.70
2022,10,21,10,24,97.40
2022,10,21,10,25,98.00
2022,10,21,10,26,97.30
2022,10,21,10,27,97.00
2022,10,21,10,28,101.70
2022,10,21,10,29,106.40
2022,10,21,10,30,113.30
2022,10,21,10,31,115.70
2022,10,21,10,32,116.80
2022,10,21,10,33,114.60
2022,10,21,10,34,115.60
2022,10,21,10,35,117.60
2022,10,21,10,36,114.00
2022,10,21,10,37,115.30
2022,10,21,10,38,114.90
2022,10,21,10,39,111.00
2022,10,21,10,40,111.00
2022,10,21,10,41,113.40
2022,10,21,10,42,121.10
2022,10,21,10,43,129.60
2022,10,21,10,44,124.80
2022,10,21,10,45,121.10
2022,10,21,10,46,130.10
2022,10,21,10,47,124.90
2022,10,21,10,48,116.90
2022,10,21,10,49,117.50
2022,10,21,10,50,111.00
2022,10,21,10,51,102.80
2022,10,21,10,52,100.90
2022,10,21,10,53,99.80
2022,10,21,10,54,99.40
2022,10,21,10,55,101.60
2022,10,21,10,56,104.40
2022,10,21,10,57,110.60
2022,10,21,10,58,108.30
2022,10,21,10,59,105.70
2022,10,21,11,00,104.00
2022,10,21,11,01,102.60
2022,10,21,11,02,98.70
2022,10,21,11,03,99.90
2022,10,21,11,04,100.90
2022,10,21,11,05,105.60
2022,10,21,11,06,110.90
2022,10,21,11,07,113.00
2022,10,21,11,08,112.30
2022,10,21,11,09,108.10
2022,10,21,11,10,113.40
2022,10,21,11,11,109.90
2022,10,21,11,12,112.40
2022,10,21,11,13,107.20
2022,10,21,11,14,106.10
2022,10,21,11,15,105.60
2022,10,21,11,16,102.60
2022,10,21,11,17,102.10
2022,10,21,11,18,103.60
2022,10,21,11,19,103.50
2022,10,21,11,20,107.00
2022,10,21,11,21,104.00
2022,10,21,11,22,103.40
2022,10,21,11,23,98.20
2022,10,21,11,24,94.80
2022,10,21,11,25,91.00
2022,10,21,11,26,91.70
2022,10,21,11,27,89.90
2022,10,21,11,28,86.00
2022,10,21,11,29,86.00
2022,10,21,11,30,86.00
2022,10,21,11,31,92.80
2022,10,21,11,32,95.90
2022,10,21,11,33,100.60
2022,10,21,11,34,105.10
2022,10,21,11,35,113.00
2022,10,21,11,36,120.90
2022,10,21,11,37,121.40
2022,10,21,11,38,131.50
2022,10,21,11,39,131.20
2022,10,21,11,40,137.00
2022,10,21,11,41,137.00
2022,10,21,11,42,139.30
2022,10,21,11,43,144.50
2022,10,21,11,44,136.10
2022,10,21,11,45,131.90
2022,10,21,11,46,130.00
2022,10,21,11,47,131.30
2022,10,21,11,48,134.00
2022,10,21,11,49,138.00
2022,10,21,11,50,138.20
2022,10,21,11,51,141.10
2022,10,21,11,52,139.10
2022,10,21,11,53,140.50
2022,10,21,11,54,146.70
2022,10,21,11,55,147.10
2022,10,21,11,56,147.80
2022,10,21,11,57,150.40
2022,10,21,11,58,152.60
2022,10,21,11,59,160.00
2022,10,21,12,00,165.80
2022,10,21,12,01,176.00
2022,10,21,12,02,176.90
2022,10,21,12,03,178.00
2022,10,21,12,04,178.00
2022,10,21,12,05,178.00
2022,10,21,12,06,180.60
2022,10,21,12,07,178.90
2022,10,21,12,08,183.00
2022,10,21,12,09,187.00
2022,10,21,12,10,193.70
2022,10,21,12,11,193.60
2022,10,21,12,12,193.00
2022,10,21,12,13,198.00
2022,10,21,12,14,188.70
2022,10,21,12,15,190.70
2022,10,21,12,16,186.70
2022,10,21,12,17,190.60
2022,10,21,12,18,195.00
2022,10,21,12,19,200.80
2022,10,21,12,20,211.30
2022,10,21,12,21,221.90
2022,10,21,12,22,233.70
2022,10,21,12,23,249.20
2022,10,21,12,24,255.90
2022,10,21,12,25,250.10
2022,10,21,12,26,240.60
2022,10,21,12,27,226.90
2022,10,21,12,28,219.60
2022,10,21,12,29,218.00
2022,10,21,12,30,218.00
2022,10,21,12,31,221.90
2022,10,21,12,32,225.00
2022,10,21,12,33,229.10
2022,10,21,12,34,229.40
2022,10,21,12,35,234.00
2022,10,21,12,36,234.60
2022,10,21,12,37,236.00
2022,10,21,12,38,236.00
2022,10,21,12,39,239.40
2022,10,21,12,40,248.30
2022,10,21,12,41,253.00
2022,10,21,12,42,260.40
2022,10,21,12,43,260.30
2022,10,21,12,44,251.90
2022,10,21,12,45,243.00
2022,10,21,12,46,239.60
2022,10,21,12,47,237.40
2022,10,21,12,48,244.40
2022,10,21,12,49,254.50
2022,10,21,12,50,266.30
2022,10,21,12,51,286.10
2022,10,21,12,52,298.40
2022,10,21,12,53,321.40
2022,10,21,12,54,350.50
2022,10,21,12,55,366.60
2022,10,21,12,56,499.80
2022,10,21,12,57,427.40
2022,10,21,12,58,377.30
2022,10,21,12,59,357.10
2022,10,21,13,00,350.60
2022,10,21,13,01,363.90
2022,10,21,13,02,393.10
2022,10,21,13,03,448.40
2022,10,21,13,04,477.30
2022,10,21,13,05,469.30
2022,10,21,13,06,434.90
2022,10,21,13,07,460.00
2022,10,21,13,08,432.70
2022,10,21,13,09,427.20
2022,10,21,13,10,460.50
2022,10,21,13,11,470.40
2022,10,21,13,12,450.10
2022,10,21,13,13,452.70
2022,10,21,13,14,444.40
2022,10,21,13,15,447.40
2022,10,21,13,16,514.10
2022,10,21,13,17,519.00
2022,10,21,13,18,503.30
2022,10,21,13,19,466.00
2022,10,21,13,20,518.10
2022,10,21,13,21,606.80
2022,10,21,13,22,600.20
2022,10,21,13,23,588.40
2022,10,21,13,24,524.90
2022,10,21,13,25,421.60
2022,10,21,13,26,351.40
2022,10,21,13,27,335.30
2022,10,21,13,28,348.20
2022,10,21,13,29,371.70
2022,10,21,13,30,384.60
2022,10,21,13,31,430.20
2022,10,21,13,32,514.30
2022,10,21,13,33,544.70
2022,10,21,13,34,546.20
2022,10,21,13,35,540.80
2022,10,21,13,36,543.00
2022,10,21,13,37,409.80
2022,10,21,13,38,409.60
2022,10,21,13,39,416.00
2022,10,21,13,40,454.00
2022,10,21,13,41,454.00
2022,10,21,13,42,359.70
2022,10,21,13,43,322.50
2022,10,21,13,44,335.70
2022,10,21,13,45,387.00
2022,10,21,13,46,424.90
2022,10,21,13,47,536.90
2022,10,21,13,48,566.00
2022,10,21,13,49,608.10
2022,10,21,13,50,628.00
2022,10,21,13,51,324.70
2022,10,21,13,52,334.00
2022,10,21,13,53,400.00
2022,10,21,13,54,376.20
2022,10,21,13,55,375.10
2022,10,21,13,56,366.10
2022,10,21,13,57,367.70
2022,10,21,13,58,407.30
2022,10,21,13,59,352.40
2022,10,21,14,00,331.00
2022,10,21,14,01,351.70
2022,10,21,14,02,378.90
2022,10,21,14,03,326.70
2022,10,21,14,04,292.00
2022,10,21,14,05,284.90
2022,10,21,14,06,265.80
2022,10,21,14,07,229.30
2022,10,21,14,08,203.00
2022,10,21,14,09,178.10
2022,10,21,14,10,159.30
2022,10,21,14,11,156.00
2022,10,21,14,12,163.60
2022,10,21,14,13,179.90
2022,10,21,14,14,185.30
2022,10,21,14,15,175.40
2022,10,21,14,16,164.70
2022,10,21,14,17,155.10
2022,10,21,14,18,153.00
2022,10,21,14,19,160.40
2022,10,21,14,20,173.10
2022,10,21,14,21,182.40
2022,10,21,14,22,202.80
2022,10,21,14,23,220.50
2022,10,21,14,24,213.70
2022,10,21,14,25,199.20
2022,10,21,14,26,185.70
2022,10,21,14,27,183.00
2022,10,21,14,28,183.60
2022,10,21,14,29,185.00
2022,10,21,14,30,180.00
2022,10,21,14,31,167.20
2022,10,21,14,32,153.20
2022,10,21,14,33,142.40
2022,10,21,14,34,134.80
2022,10,21,14,35,132.70
2022,10,21,14,36,131.80
2022,10,21,14,37,135.70
2022,10,21,14,38,140.40
2022,10,21,14,39,145.30
2022,10,21,14,40,146.10
2022,10,21,14,41,148.20
2022,10,21,14,42,149.70
2022,10,21,14,43,150.10
2022,10,21,14,44,148.40
2022,10,21,14,45,148.00
2022,10,21,14,46,144.70
2022,10,21,14,47,141.30
2022,10,21,14,48,142.70
2022,10,21,14,49,147.00
2022,10,21,14,50,150.80
2022,10,21,14,51,155.80
2022,10,21,14,52,161.30
2022,10,21,14,53,169.60
2022,10,21,14,54,169.10
2022,10,21,14,55,168.60
2022,10,21,14,56,166.40
2022,10,21,14,57,164.10
2022,10,21,14,58,162.40
2022,10,21,14,59,162.00
2022,10,21,15,00,158.70
2022,10,21,15,01,153.00
2022,10,21,15,02,146.80
2022,10,21,15,03,142.60
2022,10,21,15,04,144.90
2022,10,21,15,05,147.70
2022,10,21,15,06,153.90
2022,10,21,15,07,157.60
2022,10,21,15,08,159.90
2022,10,21,15,09,160.40
2022,10,21,15,10,162.00
2022,10,21,15,11,162.00
2022,10,21,15,12,162.00
2022,10,21,15,13,160.60
2022,10,21,15,14,156.70
2022,10,21,15,15,154.90
2022,10,21,15,16,153.00
2022,10,21,15,17,152.40
2022,10,21,15,18,150.10
2022,10,21,15,19,148.40
2022,10,21,15,20,148.00
2022,10,21,15,21,148.00
2022,10,21,15,22,142.00
2022,10,21,15,23,138.10
2022,10,21,15,24,133.30
2022,10,21,15,25,128.70
2022,10,21,15,26,125.90
2022,10,21,15,27,125.00
2022,10,21,15,28,125.00
2022,10,21,15,29,127.80
2022,10,21,15,30,128.70
2022,10,21,15,31,131.40
2022,10,21,15,32,130.00
2022,10,21,15,33,131.20
2022,10,21,15,34,132.00
2022,10,21,15,35,130.40
2022,10,21,15,36,127.90
2022,10,21,15,37,125.60
2022,10,21,15,38,128.00
2022,10,21,15,39,128.90
2022,10,21,15,40,131.10
2022,10,21,15,41,134.10
2022,10,21,15,42,136.60
2022,10,21,15,43,135.30
2022,10,21,15,44,136.40
2022,10,21,15,45,133.40
2022,10,21,15,46,132.00
2022,10,21,15,47,132.00
2022,10,21,15,48,132.00
2022,10,21,15,49,132.00
2022,10,21,15,50,132.00
2022,10,21,15,51,132.00
2022,10,21,15,52,132.70
2022,10,21,15,53,134.00
2022,10,21,15,54,134.60
2022,10,21,15,55,135.00
2022,10,21,15,56,132.50
2022,10,21,15,57,127.80
2022,10,21,15,58,122.40
2022,10,21,15,59,117.80
2022,10,21,16,00,109.00
2022,10,21,16,01,101.70
2022,10,21,16,02,98.60
2022,10,21,16,03,97.20
2022,10,21,16,04,99.90
2022,10,21,16,05,102.40
2022,10,21,16,06,104.00
2022,10,21,16,07,103.10
2022,10,21,16,08,102.00
2022,10,21,16,09,98.70
2022,10,21,16,10,95.40
2022,10,21,16,11,93.20
2022,10,21,16,12,95.00
2022,10,21,16,13,95.60
2022,10,21,16,14,96.10
2022,10,21,16,15,95.00
2022,10,21,16,16,92.30
2022,10,21,16,17,90.20
2022,10,21,16,18,88.00
2022,10,21,16,19,86.00
2022,10,21,16,20,86.60
2022,10,21,16,21,88.90
2022,10,21,16,22,90.00
2022,10,21,16,23,90.00
2022,10,21,16,24,86.70
2022,10,21,16,25,86.00
2022,10,21,16,26,86.00
2022,10,21,16,27,85.40
2022,10,21,16,28,84.00
2022,10,21,16,29,84.00
2022,10,21,16,30,85.40
2022,10,21,16,31,83.40
2022,10,21,16,32,84.00
2022,10,21,16,33,84.00
2022,10,21,16,34,83.70
2022,10,21,16,35,83.40
2022,10,21,16,36,82.30
2022,10,21,16,37,81.00
2022,10,21,16,38,79.40
2022,10,21,16,39,79.00
2022,10,21,16,40,79.00
2022,10,21,16,41,79.70
2022,10,21,16,42,81.00
2022,10,21,16,43,79.90
2022,10,21,16,44,83.80
2022,10,21,16,45,87.60
2022,10,21,16,46,88.10
2022,10,21,16,47,89.60
2022,10,21,16,48,88.00
2022,10,21,16,49,88.00
2022,10,21,16,50,86.90
2022,10,21,16,51,86.00
2022,10,21,16,52,87.60
2022,10,21,16,53,90.00
2022,10,21,16,54,91.00
2022,10,21,16,55,90.70
2022,10,21,16,56,89.10
2022,10,21,16,57,88.00
2022,10,21,16,58,89.40
2022,10,21,16,59,88.40
2022,10,21,17,00,88.00
2022,10,21,17,01,87.60
2022,10,21,17,02,86.60
2022,10,21,17,03,88.00